Burlington, IA

10:07 AM CDT on October 16, 2019 (GMT -0500)
Burlington Regional

Weather History for KBRL - August, 2019

Change the Weather History Date:

Friday, August 23, 2019

  Actual Average Record
Temperature  
Mean Temperature 71 °F 74 °F  
Max Temperature 80 °F 85 °F 101 °F (1948)
Min Temperature 62 °F 65 °F 50 °F (1984)
Degree Days  
Heating Degree Days 0 0  
Month to date heating degree days 0 0  
Since 1 June heating degree days 4 14  
Since 1 July heating degree days 0 1  
Cooling Degree Days 6 10  
Month to date cooling degree days 234 244  
Year to date cooling degree days 961 973  
Since 1 June cooling degree days 887 870  
Growing Degree Days 20 (Base 50)    
Moisture  
Dew Point 56 °F    
Average Humidity 60    
Maximum Humidity 78    
Minimum Humidity 42    
Precipitation  
Precipitation 0.00 in 0.14 in 2.73 in (2002)
Month to date precipitation 1.83 3.13  
Year to date precipitation 30.06 26.11  
Sea Level Pressure  
Sea Level Pressure 30.13 in    
Wind  
Wind Speed 9 mph (East)    
Max Wind Speed 16 mph    
Max Gust Speed 22 mph    
Visibility 10 miles    
Events      
T = Trace of Precipitation, MM = Missing Value Source: NWS Daily Summary

Daily Weather History Graph

Daily Weather History Graph

Search for Another Location

Airport or City:

Astronomy

Aug. 23, 2019 Rise Set
Actual Time 6:22 AM CDT 7:51 PM CDT
Civil Twilight 5:53 AM CDT 8:19 PM CDT
Nautical Twilight 5:18 AM CDT 8:54 PM CDT
Astronomical Twilight 4:42 AM CDT 9:30 PM CDT
Moon No Moon Rise 2:02 PM CDT (8/23)
Length of Visible Light 14h 26m
Length of Day
13h 28m
Waning Gibbous, 49% of the Moon is Illuminated
Aug 23
Waning Gibbous
Aug 30
New
Sep 5
First Quarter
Sep 13
Full
Sep 21
Last Quarter

Hourly Weather History & Observations

Time (CDT) Temp. Dew Point Humidity Pressure Visibility Wind Dir Wind Speed Gust Speed Precip Events Conditions
12:53 AM 66.9 °F 57.9 °F 73% 30.07 in 10.0 mi ENE 6.9 mph - N/A   Clear
1:53 AM 64.9 °F 57.9 °F 78% 30.07 in 10.0 mi East 8.1 mph - N/A   Clear
2:53 AM 64.0 °F 55.9 °F 75% 30.08 in 10.0 mi ENE 6.9 mph - N/A   Clear
3:53 AM 63.0 °F 55.0 °F 75% 30.07 in 10.0 mi ENE 6.9 mph - N/A   Clear
4:53 AM 63.0 °F 54.0 °F 72% 30.08 in 10.0 mi ENE 6.9 mph - N/A   Clear
5:53 AM 62.1 °F 54.0 °F 75% 30.09 in 10.0 mi ENE 6.9 mph - N/A   Clear
6:53 AM 62.1 °F 55.0 °F 78% 30.12 in 10.0 mi ENE 8.1 mph - N/A   Clear
7:53 AM 64.0 °F 55.0 °F 73% 30.14 in 10.0 mi ENE 8.1 mph - N/A   Clear
8:53 AM 66.9 °F 55.9 °F 68% 30.14 in 10.0 mi East 9.2 mph - N/A   Clear
9:53 AM 71.1 °F 57.0 °F 61% 30.15 in 10.0 mi East 9.2 mph - N/A   Clear
10:53 AM 73.9 °F 57.0 °F 55% 30.15 in 10.0 mi East 11.5 mph - N/A   Clear
11:53 AM 77.0 °F 59.0 °F 54% 30.16 in 10.0 mi ESE 9.2 mph - N/A   Clear
12:53 PM 78.1 °F 57.9 °F 50% 30.15 in 10.0 mi ENE 12.7 mph 18.4 mph N/A   Clear
1:53 PM 79.0 °F 55.9 °F 45% 30.15 in 10.0 mi ESE 9.2 mph - N/A   Clear
2:53 PM 79.0 °F 55.0 °F 44% 30.13 in 10.0 mi East 11.5 mph - N/A   Partly Cloudy
3:53 PM 79.0 °F 55.0 °F 44% 30.12 in 10.0 mi East 12.7 mph - N/A   Clear
4:53 PM 79.0 °F 54.0 °F 42% 30.12 in 10.0 mi ESE 9.2 mph 18.4 mph N/A   Clear
5:53 PM 78.1 °F 53.1 °F 42% 30.12 in 10.0 mi East 12.7 mph 16.1 mph N/A   Clear
6:53 PM 75.9 °F 55.0 °F 48% 30.12 in 10.0 mi East 8.1 mph - N/A   Clear
7:53 PM 73.0 °F 55.9 °F 55% 30.13 in 10.0 mi East 6.9 mph - N/A   Clear
8:53 PM 70.0 °F 55.9 °F 61% 30.16 in 10.0 mi East 4.6 mph - N/A   Scattered Clouds
9:53 PM 68.0 °F 57.0 °F 68% 30.17 in 10.0 mi ENE 6.9 mph - N/A   Clear
10:53 PM 66.9 °F 57.0 °F 70% 30.17 in 10.0 mi East 5.8 mph - N/A   Overcast
11:53 PM 66.0 °F 55.0 °F 68% 30.17 in 10.0 mi East 6.9 mph - N/A   Overcast